DW1996 Weather Reports


Display with metric or nautical units.
time (UTC)temp
F
wind
direction
speed
MPH
gust
MPH
rain 1hr
in
rain 24hr
in
rain mn
in
humidity
%
barometer
mb
20260507130007 80 107 0.0 0.0 0.00 0.00 0.00 90 1010.1
20260507124512 80 103 0.0 0.0 0.00 0.00 0.00 90 1009.9
20260507123004 80 111 0.0 0.0 0.00 0.00 0.00 90 1009.6
20260507121501 80 69 0.0 0.0 0.00 0.00 0.00 90 1009.3
20260507120059 80 116 0.0 4.0 0.00 0.00 0.00 90 1009.1
20260507120001 80 94 0.0 5.0 0.00 0.00 0.00 90 1009.1
20260507114559 80 143 1.0 8.0 0.00 0.00 0.00 90 1008.8
20260507113058 80 176 2.0 10.0 0.00 0.00 0.00 90 1008.6
20260507111556 80 102 1.0 11.0 0.00 0.00 0.00 90 1008.1
20260507110058 80 101 4.0 10.0 0.00 0.00 0.00 90 1008.2
20260507104554 80 98 2.0 9.0 0.00 0.00 0.00 89 1008.5
20260507103051 80 101 5.0 10.0 0.00 0.00 0.00 89 1008.9
20260507101602 81 60 0.0 0.0 0.00 0.00 0.00 89 1009.1
20260507100049 81 63 0.0 0.0 0.00 0.00 0.00 89 1009.1
20260507094556 81 59 0.0 0.0 0.00 0.00 0.00 89 1009.2
20260507093047 81 63 0.0 0.0 0.00 0.00 0.00 89 1009.0
20260507091558 81 96 0.0 0.0 0.00 0.00 0.00 88 1008.9
20260507090106 81 115 0.0 0.0 0.00 0.00 0.00 88 1008.6
20260507084543 81 72 0.0 0.0 0.00 0.00 0.00 88 1008.7
20260507083043 81 133 0.0 0.0 0.00 0.00 0.00 88 1008.7
20260507081551 81 144 0.0 0.0 0.00 0.00 0.00 88 1009.0
20260507080040 81 127 0.0 0.0 0.00 0.00 0.00 87 1009.1
20260507074541 81 103 0.0 0.0 0.00 0.00 0.00 88 1009.0
20260507073053 81 175 0.0 0.0 0.00 0.00 0.00 87 1008.8
20260507071537 81 151 0.0 0.0 0.00 0.00 0.00 87 1008.9
20260507070053 81 192 0.0 0.0 0.00 0.00 0.00 87 1009.0
20260507064536 81 128 0.0 0.0 0.00 0.00 0.00 87 1009.0
20260507063036 81 149 0.0 0.0 0.00 0.00 0.00 87 1009.0
20260507061535 81 118 0.0 0.0 0.00 0.00 0.00 88 1009.0
20260507060034 81 147 0.0 0.0 0.00 0.00 0.00 88 1009.0
20260507054533 81 158 0.0 6.0 0.00 0.00 0.00 88 1009.0
20260507053034 81 98 0.0 8.0 0.00 0.00 0.00 88 1009.0
20260507051531 81 148 0.0 10.0 0.00 0.00 0.00 88 1009.0
20260507050032 81 164 2.0 10.0 0.00 0.00 0.00 88 1008.9
20260507044540 81 156 0.0 6.0 0.00 0.00 0.00 89 1008.8
20260507043024 81 143 0.0 7.0 0.00 0.00 0.00 88 1008.7
20260507041523 81 171 1.0 8.0 0.00 0.00 0.00 88 1008.6
20260507040023 81 113 1.0 8.0 0.00 0.00 0.00 89 1008.5
20260507034519 81 164 0.0 12.0 0.00 0.00 0.00 89 1008.2
20260507033017 81 133 1.0 7.0 0.00 0.00 0.00 89 1007.9
20260507031514 81 157 2.0 13.0 0.00 0.00 0.00 89 1007.6
20260507030013 81 117 1.0 8.0 0.00 0.00 0.00 89 1007.4
20260507024511 81 142 2.0 9.0 0.00 0.00 0.00 89 1007.2
20260507023011 81 147 2.0 9.0 0.00 0.00 0.00 88 1007.0
20260507021509 81 130 2.0 8.0 0.00 0.00 0.00 88 1006.9
20260507020009 81 123 3.0 10.0 0.00 0.00 0.00 88 1006.6
20260507014509 81 164 4.0 13.0 0.00 0.00 0.00 88 1006.4
20260507013008 81 149 4.0 14.0 0.00 0.00 0.00 88 1006.1
20260507011507 81 100 5.0 15.0 0.00 0.00 0.00 87 1005.9
20260507010008 82 75 3.0 12.0 0.00 0.00 0.00 86 1005.7
20260507004506 82 150 6.0 12.0 0.00 0.00 0.00 86 1005.6
20260507003005 82 120 4.0 14.0 0.00 0.00 0.00 85 1005.5
20260507001510 82 208 6.0 12.0 0.00 0.00 0.00 84 1005.4
20260507000004 83 127 6.0 13.0 0.00 0.00 0.00 83 1005.2
20260506234504 84 135 6.0 13.0 0.00 0.00 0.00 82 1005.1
20260506233003 85 128 4.0 10.0 0.00 0.00 0.00 81 1005.0
20260506231502 85 171 3.0 9.0 0.00 0.00 0.00 80 1004.8
20260506230002 86 24 3.0 11.0 0.00 0.00 0.00 80 1004.7
20260506224502 86 135 4.0 12.0 0.00 0.00 0.00 79 1004.7
20260506223101 86 112 3.0 10.0 0.00 0.00 0.00 79 1004.8
20260506221600 86 96 3.0 10.0 0.00 0.00 0.00 80 1004.8
20260506220100 86 107 6.0 12.0 0.00 0.00 0.00 78 1004.8
20260506214559 87 123 2.0 12.0 0.00 0.00 0.00 77 1004.7
20260506213058 88 138 4.0 14.0 0.00 0.00 0.00 76 1004.7
20260506211559 88 126 8.0 15.0 0.00 0.00 0.00 76 1004.6
20260506210058 88 142 8.0 16.0 0.00 0.00 0.00 76 1004.6
20260506204558 90 194 8.0 14.0 0.00 0.00 0.00 73 1004.8
20260506203056 90 132 7.0 16.0 0.00 0.00 0.00 72 1005.0
20260506201617 91 144 8.0 19.0 0.00 0.00 0.00 71 1005.1
20260506200052 91 182 10.0 16.0 0.00 0.00 0.00 70 1005.4
20260506194552 90 124 10.0 17.0 0.00 0.00 0.00 72 1005.5
20260506193052 90 150 10.0 21.0 0.00 0.00 0.00 72 1005.6
20260506191547 90 155 9.0 14.0 0.00 0.00 0.00 72 1005.7
20260506190045 90 199 9.0 16.0 0.00 0.00 0.00 72 1005.8
20260506184550 90 161 8.0 15.0 0.00 0.00 0.00 73 1005.9
20260506183041 89 211 8.0 13.0 0.00 0.00 0.00 75 1006.0
20260506181540 88 149 8.0 18.0 0.00 0.00 0.00 76 1006.2
20260506180039 88 196 8.0 16.0 0.00 0.00 0.00 75 1006.4
20260506174536 88 153 8.0 15.0 0.00 0.00 0.00 75 1006.4
20260506173039 87 159 9.0 15.0 0.00 0.00 0.00 77 1006.6
20260506171542 86 155 8.0 15.0 0.00 0.00 0.00 78 1006.9
20260506170030 86 169 8.0 13.0 0.00 0.00 0.00 76 1007.0
20260506164529 87 177 8.0 17.0 0.00 0.00 0.00 76 1006.8
20260506163038 85 216 9.0 16.0 0.00 0.00 0.00 78 1006.8
20260506161527 86 174 8.0 12.0 0.00 0.00 0.00 77 1006.8
20260506160027 86 182 7.0 11.0 0.00 0.00 0.00 78 1006.5
20260506154530 86 142 5.0 13.0 0.00 0.00 0.00 78 1006.5
20260506153022 85 185 7.0 11.0 0.00 0.00 0.00 79 1006.4
20260506151518 83 183 4.0 7.0 0.00 0.00 0.00 82 1006.6
20260506150015 83 157 2.0 6.0 0.00 0.00 0.00 83 1007.0
20260506144513 82 192 4.0 7.0 0.00 0.00 0.00 84 1007.0
20260506143015 82 192 1.0 9.0 0.00 0.00 0.00 85 1007.1
20260506141507 81 202 2.0 8.0 0.00 0.00 0.00 87 1007.1
20260506140004 80 195 1.0 6.0 0.00 0.00 0.00 87 1007.1
20260506134501 80 205 1.0 8.0 0.00 0.00 0.00 88 1007.0
20260506133103 80 195 3.0 9.0 0.00 0.00 0.00 88 1006.7
20260506131558 80 178 3.0 9.0 0.00 0.00 0.00 88 1006.5